Regional Weather Roundup
Issued by NWS Bismarck, ND

Home | Current Version | Previous Version | Text Only | Print | Product List | Glossary On
Versions: 1 2 3 4 5 6 7 8 9 10 11 12 13 14 15 16 17 18 19 20 21 22 23 24 25 26 27 28 29 30 31 32 33 34 35 36 37 38 39 40 41 42 43 44 45 46 47 48 49 50
000
ASUS43 KBIS 272259
RWRBIS

NWR BROADCAST TEXT
NATIONAL WEATHER SERVICE BISMARCK ND
500 PM CST THU NOV 27 2014

NOTE: "FAIR" INDICATES FEW OR NO CLOUDS BELOW 12,000 FEET WITH NO
SIGNIFICANT WEATHER AND/OR OBSTRUCTIONS TO VISIBILITY.


CITY           SKY/WX    TMP DP  RH WIND       PRES   REMARKS
WILLISTON      CLOUDY    20  15  81 E12       29.85S WCI   8
MINOT          LGT SNOW  13   9  84 E14       29.98F VSB 3/4 WCI  -2
MINOT AFB      CLOUDY    14  12  92 SE16      29.99F BLWGSNOWWCI  -2
BISMARCK       LGT SNOW  12   9  87 SE17      30.01F FOG     WCI  -5
DICKINSON      NOT AVBL
GARRISON         N/A     13  11  92 SE16      29.94F WCI  -3
HETTINGER ARPT CLOUDY    24  19  81 S12       29.87F WCI  13
JAMESTOWN      MIX PCPN   6  -1  73 SE13      30.14F WCI -10
CARRINGTON     CLOUDY     5   0  78 SE21G26   30.11F WCI -16
CROSBY         LGT SNOW  16  16 100 E16       29.91S VSB 1   WCI   0
$$

CITY           SKY/WX    TMP DP  RH WIND       PRES   REMARKS
GRAND FORKS    CLOUDY     4  -4  69 S12       30.28F WCI -12
GRAND FORKS AF NOT AVBL
DEVILS LAKE    CLOUDY     7  -8  51 SE15G21   30.11F WCI -11
FARGO          CLOUDY     9  -2  61 SE14      30.28F WCI  -7
GRAFTON        FAIR       5  -2  72 S15       30.27F WCI -13
$$

CITY           SKY/WX    TMP DP  RH WIND       PRES   REMARKS
ABERDEEN       CLOUDY    13   5  70 SE13      30.19F WCI  -2
MOBRIDGE       CLOUDY    17  11  77 SE22      29.98F WCI   0
BUFFALO          N/A     30  23  75 S13       29.78F WCI  20
RAPID CITY     CLEAR     34  27  75 E3        29.88F
GLASGOW        CLEAR     32  28  85 E9        29.75R
SIDNEY         CLOUDY    32  27  80 SE6       29.81F
WOLF POINT     PTCLDY    32  27  81 NE9       29.78R
GLENDIVE       PTCLDY    36  28  75 S10       29.77F
MILES CITY     CLEAR     41  33  73 S7        29.79F
BAKER          MOCLDY    42  31  64 W9        29.80S
$$

CITY           SKY/WX    TMP DP  RH WIND       PRES   REMARKS
BILLINGS       PTCLDY    50  30  46 SW17      29.85S
GREAT FALLS    CLEAR     55  34  45 W29G36    29.73F
$$




USA.gov is the U.S. government's official web portal to all federal, state and local government web resources and services.